sat.trackr.live / text

‹ back to catalog

STARLINK-34065

NORAD 63813 · 2025-092K

PAYLOAD ACTIVE UNKNOWN

§ Identity

Operator
Country
US
Launch date
2025-05-04
Launch site
AFETR
Launch vehicle
Mass (kg)
RCS (m²)

Purposes: comms

External: N2YO · Heavens-Above · Gunter

§ Orbital elements

Epoch: 2026-09-20T09:05:08.008224Z

Period
94.27 min
Inclination
42.9984°
Eccentricity
0.0001520
Mean motion
15.27584943 rev/d
Perigee alt
482.0 km
Apogee alt
484.1 km
Semi-major
6,861.2 km
B*
4.6208e-4
RAAN
149.2006°
Arg perigee
265.0596°
Mean anomaly
95.0082°
Rev number
7,837

§ Raw data

STARLINK-340651 63813U 25092K   26263.37856491  .00012477  00000+0  46208-3 0  99942 63813  42.9984 149.2006 0001520 265.0596  95.0082 15.27584943 78379

JSON: /api/v1/satellites/63813 · /tle

For live sub-satellite position, see the globe view (requires WebGL).

§ Visibility from observer

Set your observer location to see the next 7 days of passes ≥ 10°. The values pass through the URL so the page stays shareable.

No JS? Fill the form by hand. The geolocation button needs JavaScript.